Погода в Ботшабело

ЮАР     29°12′28″S   26°43′09″E
темп.,
°C
ветер,
м/с
пор.,
м/с
влажн.,
%
обл.,
%
осадки,
мм/ч
давл.,
гПа
погр.,
м
17 августа, ср
ср1723:00+8ссв332411 0.0 102012
02:00+7св33265 0.0 101923
05:00+6св48275 0.0 1018103
08:00+8ссв482891 0.0 1018209
11:00+18ссз8121838 0.0 10151086
14:00+22зсз101412100 0.0 10101999
17:00+19з71016100 0.0 1009391
20:00+11сз2227100 0.0 101211
18 августа, чт
чт1823:00+9сз2229100 0.0 101410
02:00+7в113353 0.0 101310
05:00+6сз22332 0.0 101310
08:00+9зюз123014 0.0 101584
11:00+14з45275 0.0 10131213
14:00+16зсз7102077 0.0 10101895
17:00+14з6727100 0.0 10101638
20:00+8ююз485372 0.0 1014199
19 августа, пт
пт1923:00+8юз6848100 0.0 1016871
02:00+4ю2480100 0.6 1018441
05:00+3з3594100 0.2 1018459
08:00+4зюз47778 0.4 1019428
11:00+11ююз793899 0.0 10182214
14:00+13ююз883638 0.0 10171943
17:00+12юз68334 0.0 10171800
20:00+7юз22490 0.0 102218
20 августа, сб
сб2023:00+5з22570 0.0 102210
02:00+3зсз22610 0.0 102211
05:00+1сз22680 0.0 102411
08:00+3з39620 0.0 1027453
11:00+10юз79370 0.0 10251228
14:00+13юз89280 0.0 10221511
17:00+12ююз79260 0.0 10221507
20:00+6ю22420 0.0 102611
21 августа, вс
вс2123:00+4ююв22500 0.0 102710
02:00+3юв22510 0.0 102810
05:00+2вюв22550 0.0 102810
08:00+7юв11410 0.0 102959
11:00+13юз22280 0.0 1027915
14:00+16зюз23230 0.0 10231446
17:00+16з33240 0.0 1022541
20:00+10юз22370 0.0 102510